| time (UTC) | temp C | wind direction | speed KPH | gust KPH | rain 1hr cm | rain 24hr cm | rain mn cm | humidity % | barometer mb |
| 20260505040035 | 12 | 190 | 0.0 | 0.0 | 0.00 | 0.00 | 0.00 | 55 | 1016.0 |
| 20260505034525 | 12 | 191 | 0.0 | 3.2 | 0.00 | 0.00 | 0.00 | 54 | 1016.2 |
| 20260505033030 | 13 | 189 | 0.0 | 0.0 | 0.00 | 0.00 | 0.00 | 53 | 1016.2 |
| 20260505030027 | 13 | 190 | 0.0 | 0.0 | 0.00 | 0.00 | 0.00 | 52 | 1016.3 |
| 20260505024524 | 13 | 188 | 0.0 | 0.0 | 0.00 | 0.00 | 0.00 | 51 | 1016.3 |
| 20260505023024 | 14 | 188 | 0.0 | 0.0 | 0.00 | 0.00 | 0.00 | 51 | 1016.2 |
| 20260505020023 | 15 | 190 | 0.0 | 0.0 | 0.00 | 0.00 | 0.00 | 51 | 1016.2 |
| 20260505014523 | 15 | 360 | 0.0 | 0.0 | 0.00 | 0.00 | 0.00 | 49 | 1016.0 |
| 20260505013023 | 16 | 198 | 0.0 | 0.0 | 0.00 | 0.00 | 0.00 | 47 | 1015.9 |
| 20260505010022 | 17 | 360 | 0.0 | 0.0 | 0.00 | 0.00 | 0.00 | 38 | 1015.5 |
| 20260505004522 | 18 | 360 | 0.0 | 0.0 | 0.00 | 0.00 | 0.00 | 37 | 1015.3 |
| 20260505003022 | 20 | 360 | 0.0 | 0.0 | 0.00 | 0.00 | 0.00 | 36 | 1015.1 |
| 20260505000021 | 20 | 130 | 0.0 | 0.0 | 0.00 | 0.00 | 0.00 | 34 | 1015.2 |
| 20260504234520 | 21 | 128 | 0.0 | 0.0 | 0.00 | 0.00 | 0.00 | 33 | 1015.0 |
| 20260504233020 | 22 | 131 | 0.0 | 3.2 | 0.00 | 0.00 | 0.00 | 28 | 1014.8 |
| 20260504230019 | 23 | 222 | 0.0 | 6.4 | 0.00 | 0.00 | 0.00 | 24 | 1014.7 |
| 20260504224518 | 23 | 148 | 4.8 | 9.7 | 0.00 | 0.00 | 0.00 | 23 | 1014.7 |
| 20260504223018 | 23 | 211 | 8.0 | 12.9 | 0.00 | 0.00 | 0.00 | 22 | 1014.8 |
| 20260504220022 | 24 | 156 | 4.8 | 14.5 | 0.00 | 0.00 | 0.00 | 21 | 1014.7 |
| 20260504214517 | 23 | 207 | 4.8 | 17.7 | 0.00 | 0.00 | 0.00 | 22 | 1014.8 |
| 20260504213016 | 23 | 207 | 4.8 | 17.7 | 0.00 | 0.00 | 0.00 | 21 | 1014.8 |
| 20260504210014 | 24 | 182 | 11.3 | 25.7 | 0.00 | 0.00 | 0.00 | 21 | 1014.8 |
| 20260504204514 | 24 | 116 | 6.4 | 14.5 | 0.00 | 0.00 | 0.00 | 20 | 1014.9 |
| 20260504203014 | 24 | 200 | 4.8 | 19.3 | 0.00 | 0.00 | 0.00 | 21 | 1015.0 |
| 20260504201609 | 24 | 211 | 6.4 | 14.5 | 0.00 | 0.00 | 0.00 | 19 | 1015.2 |
| 20260504200016 | 24 | 213 | 12.9 | 24.1 | 0.00 | 0.00 | 0.00 | 20 | 1015.5 |
| 20260504194506 | 23 | 223 | 9.7 | 16.1 | 0.00 | 0.00 | 0.00 | 20 | 1015.6 |
| 20260504193004 | 23 | 198 | 9.7 | 17.7 | 0.00 | 0.00 | 0.00 | 21 | 1015.8 |
| 20260504190003 | 23 | 171 | 8.0 | 14.5 | 0.00 | 0.00 | 0.00 | 21 | 1016.1 |
| 20260504184615 | 23 | 186 | 6.4 | 17.7 | 0.00 | 0.00 | 0.00 | 21 | 1016.5 |
| 20260504183059 | 23 | 136 | 14.5 | 19.3 | 0.00 | 0.00 | 0.00 | 21 | 1016.6 |
| 20260504181655 | 23 | 281 | 4.8 | 16.1 | 0.00 | 0.00 | 0.00 | 25 | 1016.7 |
| 20260504180051 | 22 | 143 | 4.8 | 14.5 | 0.00 | 0.00 | 0.00 | 22 | 1016.9 |
| 20260504174549 | 22 | 206 | 8.0 | 16.1 | 0.00 | 0.00 | 0.00 | 22 | 1016.9 |
| 20260504173049 | 22 | 239 | 4.8 | 11.3 | 0.00 | 0.00 | 0.00 | 23 | 1017.1 |
| 20260504171647 | 22 | 140 | 4.8 | 11.3 | 0.00 | 0.00 | 0.00 | 24 | 1017.2 |
| 20260504081534 | 5 | 233 | 0.0 | 0.0 | 0.00 | 0.00 | 0.00 | 65 | 1017.9 |
| 20260504050021 | 7 | 226 | 0.0 | 0.0 | 0.00 | 0.00 | 0.00 | 62 | 1018.3 |
| 20260504044530 | 8 | 226 | 0.0 | 0.0 | 0.00 | 0.00 | 0.00 | 60 | 1018.1 |
| 20260504043025 | 8 | 225 | 0.0 | 0.0 | 0.00 | 0.00 | 0.00 | 60 | 1017.7 |
| 20260504041523 | 8 | 225 | 0.0 | 0.0 | 0.00 | 0.00 | 0.00 | 59 | 1018.0 |